Weather in Klyuchi

Russia / Tomsk District     56°24′13″N   85°01′30″E
temp.,
°C
wind,
m/s
gust,
m/s
humid.,
%
clouds,
%
prec.,
mm/h
press.,
hPa
HPBL,
m
20 june, sun
sun2001:00+10wnw4796100 1.9 1002497
04:00+9w3793100 0.0 1004483
07:00+9wnw4685100 0.0 1005563
10:00+10wnw4470100 0.0 1005979
13:00+12w3459100 0.0 10061212
16:00+17wsw244327 0.0 10051835
19:00+15ssw465697 0.0 1006853
22:00+12sw4861100 0.0 1007325
21 june, mon
mon2101:00+11s266854 0.0 1008232
04:00+6se259223 0.0 1008116
07:00+10sse37773 0.0 1008293
10:00+16sse565247 0.0 10071173
13:00+19s574178 0.0 10072317
16:00+14sw5973100 0.1 1008653
19:00+11se2792100 0.7 1009536
22:00+10se379491 0.0 1009413
22 june, tue
tue2201:00+8sse279893 0.0 1008155
04:00+7se229885 0.0 100750
07:00+10se239394 0.0 1007183
10:00+15sse1171100 0.0 1007773
13:00+17se1166100 0.8 10061040
16:00+16nnw1178100 2.7 1006714
19:00+13ese2394100 7.7 100766
22:00+11s1399100 8.6 1006160
23 june, wed
wed2301:00+11sw1499100 22.0 1005406
04:00+11sw51098100 6.1 1004716
07:00+10sw51199100 12.4 1006661
10:00+10ssw4899100 1.3 1007616
13:00+12ssw4795100 1.9 1009604
16:00+14ssw478378 1.7 1009985
19:00+14s368782 3.2 1009538
22:00+10s22945 0.8 101023
24 june, thu
thu2401:00+8sse22975 0.8 101020
04:00+7sse119737 0.0 100912
07:00+9ese129599 0.0 1010139
10:00+15ese017695 0.1 1009596
13:00+16e2379100 2.1 1009846
16:00+13ne239185 2.1 1009118
19:00+15wsw1185100 3.5 1009145
22:00+12e1297100 4.6 101038